Volver al catálogo

CZ-6A DEB

ActivoSSO
NORAD 54509·DEBRIS·🇨🇳 China

Lanzado Nov 11, 2022 desde Taiyuan Satellite Launch Center

Loading…

Próximos Pases (próximas 24 horas)

TLE

ActualizadoSource: Space-Track

Época: Sep 13, 2026, 20:50 UTC

1 54509U 22151JM  26256.86844010 -.00000081  00000-0 -28132-4 0  9997
2 54509  98.9356 220.7105 0124646 193.1567 166.6333 13.92524327194805

Sigue CZ-6A DEB en tiempo real con AllMySat

Download on the App Store